Terminal Aerodrome Forecast
Issued by NWS Wakefield, VA

Home | Current Version | Previous Version | Text Only | Print | Product List | Glossary On
Versions: 1 2 3 4 5 6 7 8 9 10 11 12 13 14 15 16 17
000
FTUS41 KAKQ 250500
TAFSBY
TAF
KSBY 250533Z 2506/2606 VRB03KT P6SM BKN060 BKN200
     FM251200 VRB06KT P6SM SCT045 BKN250
      AMD NOT SKED=

USA.gov is the U.S. government's official web portal to all federal, state and local government web resources and services.